Location: Lafig�re
(44.4503°N, 4.0357°E)
Time: 15:18:31
(UTC+00:00)

Transit 2A Rocket - Pass Details

Date: 28 January 2021
Orbit: 594 x 908 km, 66.7° (Epoch: 06 March)

Event Time Altitude Azimuth Distance (km) Brightness Sun altitude
Rises 20:11:28 0° 321° (NW) 2,889 8.6 -36.3°
Reaches altitude 10° 20:13:51 10° 314° (NW) 1,957 7.7 -36.7°
Enters shadow 20:14:14 12° 312° (NW) 1,814 7.5 -36.8°
Maximum altitude 20:17:53 38° 246° (WSW) 907 - -37.4°
Drops below altitude 10° 20:21:53 10° 177° (S) 1,925 - -38.1°
Sets 20:24:13 0° 170° (S) 2,836 - -38.5°
